www.pogodaiklimat.ru

Погода и климат >> Архив погоды >> Иран >> Ahwaz


ПОГОДА в Ahwaz

  • Прогноз погоды в Ahwaz
  • Монитор погоды в Ahwaz
  • Климат города

АРХИВ ПОГОДЫ в Ahwaz

Время (UTC), дата Ветер
(напр.,м/с)
 
Видим.   Явления Облачность Т
(С)
Тd
(С)
f
(%)
Тe
(С)
Тes
(С)
Комфортность P
(гПа)
Po
(гПа)
Тmin
(С)
Tmax
(С)
R
(мм)
R24
(мм)
S
(см)
18 12.07 З 4 10 км ясно +43.5 +5.2 10 +41 +41 опасность
перегрева
991.8 989.5
21 12.07 СЗ 4 8000 м мгла ясно +39.4 +4.8 12 +36 +36 очень
жарко
991.9 989.5
00 13.07 ЮЗ 2 7000 м мгла ясно +34.4 +8.2 20 +33 +33 жарко 991.9 989.5
03 13.07 З 2 5000 м мгла ясно +33.7 +8.4 21 +32 +34 жарко 992.4 990.1 +32.8
06 13.07 СЗ 2 6000 м мгла ясно +39.9 +11.1 18 +39 +53 опасность
солнечного
удара
993.0 990.7
09 13.07 ЮЗ 4 7000 м мгла ясно +47.4 +6.6 9 +45 +59 опасность
перегрева
992.6 990.3
12 13.07 З 2 7000 м мгла ясно +49.8 +4.7 7 +47 +58 опасность
перегрева
991.0 988.7
15 13.07 З 6 4000 м пыльный позёмок ясно +46.2 +5.7 9 +43 +44 опасность
перегрева
990.6 988.2 +50.5
18 13.07 З 6 7000 м мгла ясно +41.2 +0.1 8 +37 +37 очень
жарко
992.6 990.3
21 13.07 СЗ 6 7000 м мгла ясно +37.8 +5.7 14 +35 +35 очень
жарко
992.6 990.3
00 14.07 СЗ 3 8000 м мгла ясно +36.3 +2.4 12 +33 +33 жарко 992.7 990.4
03 14.07 СЗ 3 8000 м мгла ясно +35.0 +4.5 15 +32 +33 жарко 993.4 991.0 +34.2
06 14.07 СЗ 5 10 км ясно +41.3 +5.0 11 +38 +46 очень
жарко
994.6 992.2
09 14.07 З 8 10 км ясно +45.6 -0.4 6 +42 +46 опасность
перегрева
994.7 992.3
12 14.07 СЗ 6 10 км ясно +45.8 +1.9 7 +42 +47 опасность
перегрева
993.8 991.4
15 14.07 СЗ 4 10 км ясно +43.8 +0.4 7 +40 +40 очень
жарко
993.7 991.3 +46.4
18 14.07 СЗ 3 10 км ясно +40.0 -0.5 8 +36 +36 очень
жарко
994.7 992.3
21 14.07 З 2 10 км ясно +36.8 +1.5 11 +33 +33 жарко 994.6 992.2
00 15.07 СЗ 2 6000 м мгла ясно +34.8 +3.4 14 +32 +32 жарко 994.4 992.1
03 15.07 С 1 6000 м мгла ясно +29.4 +3.0 18 +30 +31 жарко 995.0 992.6 +27.7
06 15.07 СВ 2 7000 м мгла ясно +42.1 +2.7 9 +39 +52 опасность
солнечного
удара
995.9 993.5
09 15.07 С 3 10 км ясно +44.8 +4.7 9 +42 +60 опасность
перегрева
995.8 993.4
12 15.07 З 2 10 км ясно +45.8 +5.4 9 +43 +54 опасность
перегрева
994.1 991.7
15 15.07 З 3 10 км ясно +43.3 +5.1 10 +40 +41 очень
жарко
993.9 991.5 +46.0
18 15.07 СЗ 1 10 км ясно +37.9 +5.8 14 +35 +35 очень
жарко
994.4 992.0
21 15.07 З 1 10 км ясно +33.8 +6.2 18 +32 +32 жарко 994.1 991.7
00 16.07 ЮВ 1 10 км ясно +29.7 +9.3 28 +29 +29 жарко 994.2 991.9
03 16.07 ЮВ 1 10 км ясно +30.3 +10.3 29 +30 +32 жарко 994.6 992.2 +27.6
06 16.07 С 2 8000 м мгла ясно +41.0 +8.2 14 +39 +53 опасность
солнечного
удара
995.1 992.7
09 16.07 С 2 10 км ясно +44.7 +6.1 10 +42 +64 опасность
перегрева
994.4 992.0
12 16.07 З 3 10 км ясно +45.6 +5.3 9 +43 +52 опасность
перегрева
993.1 990.8
15 16.07 З 2 10 км ясно +43.5 +5.2 10 +41 +41 опасность
перегрева
992.9 990.5 +46.0
18 16.07 З 4 10 км ясно +41.1 +9.3 15 +39 +39 очень
жарко
993.5 991.1
21 16.07 СЗ 5 10 км ясно +37.8 +10.2 19 +37 +37 очень
жарко
993.6 991.3
00 17.07 СЗ 3 10 км ясно +35.8 +9.4 20 +34 +34 очень
жарко
992.9 990.5
03 17.07 З 2 10 км ясно +33.4 +11.3 26 +33 +34 жарко 994.1 991.7 +32.3
06 17.07 З 4 8000 м мгла ясно +38.6 +10.9 19 +38 +47 очень
жарко
994.4 992.0
09 17.07 СЗ 4 8000 м мгла ясно +43.2 +8.8 13 +41 +56 опасность
перегрева
993.9 991.5
12 17.07 З 4 8000 м мгла ясно +45.0 +7.8 11 +43 +50 опасность
перегрева
992.6 990.2
15 17.07 З 4 7000 м мгла ясно +42.8 +8.0 13 +39 +39 очень
жарко
992.1 989.7 +45.6
18 17.07 З 4 7000 м мгла ясно +38.9 +8.6 16 +37 +37 очень
жарко
993.3 990.9
21 17.07 З 4 6000 м мгла ясно +36.0 +8.8 19 +34 +34 очень
жарко
993.6 991.3
00 18.07 СЗ 1 3000 м дым ясно +33.1 +8.6 22 +32 +32 жарко 993.3 990.9
03 18.07 З 2 2000 м дым 1/1 1200 м
[Cu hum]
+30.8 +9.1 26 +30 +31 жарко 994.4 992.0 +30.6
06 18.07 З 3 7000 м мгла ясно +36.0 +9.5 20 +35 +46 очень
жарко
994.6 992.2
09 18.07 З 3 10 км ясно +43.2 +9.9 14 +42 +59 опасность
перегрева
994.3 991.9
12 18.07 З 4 10 км ясно +44.9 +6.3 10 +42 +50 опасность
перегрева
992.9 990.5
15 18.07 З 3 10 км ясно +43.4 +5.2 10 +41 +41 опасность
перегрева
993.0 990.6 +45.4
18 18.07 З 3 8000 м мгла 1/0
[Ci fib]
+40.5 +6.8 13 +38 +38 очень
жарко
994.3 991.9
21 18.07 З 3 10 км ясно +37.1 +8.9 18 +35 +35 очень
жарко
994.6 992.2
00 19.07 ЮЗ 1 7000 м мгла 1/0
[Ci fib]
+33.6 +9.6 23 +33 +33 жарко 994.7 992.3
03 19.07 ЮЗ 1 1800 м дым 3/3 1200 м
[Sc]
+31.4 +14.1 35 +33 +34 жарко 995.4 993.0 +31.4
06 19.07 З 1 3000 м мгла ясно +39.4 +13.0 21 +39 +55 опасность
солнечного
удара
996.2 993.8
09 19.07 З 3 7000 м мгла ясно +44.7 +8.8 12 +43 +61 опасность
перегрева
995.6 993.2
12 19.07 З 2 7000 м мгла ясно +47.2 +6.5 9 +45 +56 опасность
перегрева
994.0 991.6

 

Местоположение метеостанции Ahwaz (Иран): широта 31.33 долгота 48.67 высота над уровнем моря 22 м.

В архиве по умолчанию представлена погода в Ahwaz за последнюю неделю. Архивные данные за месяц целиком и за предыдущие месяцы, начиная с января 2011 года, Вы можете получить, выбрав интересующий диапазон дат из раскрывающегося списка и нажав кнопку "Ввод!".


*Определитесь, кто Вы:
робот инопланетянин человек

Внимание! Время в таблицах - всемирное. Для получения местного времени необходимо прибавить поправку, которая в Ahwaz равна 3.5 ч.

Смотрите также архив погоды в соседних городах и на ближайших метеорологических станциях:

Погода в Masjed-Soleyman (Иран) (92 км)
Погода в Safi-Abad Dezful (Иран) (107 км)
Погода в Omidieh (Иран) (114 км)
Погода в Abadan (Иран) (114 км)
Погода в Basrah (Ирак) (120 км)
Погода в Basrah Airport (Ирак) (124 км)
Погода в Fao (Ирак) (151 км)
Погода в Amarah (Ирак) (153 км)
Погода в Abdaly (Кувейт) (167 км)
Погода в Bubiyan (Кувейт) (176 км)

Пояснения к столбцам:

Ветер - указаны скорость ветра в м/с - средняя за 10 мин, порывы в срок и между сроками (в фигурных скобках) и направление, откуда дует ветер: С - северный, СВ - северо-восточный, В - восточный, ЮВ - юго-восточный, Ю - южный, ЮЗ - юго-западный, З - западный, СЗ - северо-западный.
Видимость - горизонтальная дальность видимости в метрах или километрах. При видимости от 1 до 10 км при отсутствии осадков обычно наблюдается дымка, при ухудшении видимости до 1 км и менее - туман. В сухую погоду видимость может ухудшаться дымом, пылью или мглою.
Явления - указаны атмосферные явления, наблюдавшиеся в срок или в последний час перед сроком; фигурными скобками обозначены явления, наблюдавшиеся между сроками (за 1-3 часа до срока); квадратными скобками обозначены град или гололедные отложения с указанием их диаметра в мм.
Облачность - указаны через наклонную черту общая и нижняя облачность в баллах и высота нижней границы облаков в метрах; квадратными скобками обозначены формы облаков: Ci - перистые, Cs - перисто-слоистые, Cc - перисто-кучевые, Ac - высококучевые, As - высокослоистые, Sc - слоисто-кучевые, Ns - слоисто-дождевые, Cu - кучевые, Cb - кучево-дождевые. Подробнее классификацию облаков см. в Атласе облаков (PDF).
T - Температура воздуха - температура, измеренная на высоте 2 м над землей.
Td - Температура точки росы - температура, при понижении до которой содержащийся в воздухе водяной пар достигнет насыщения.
f - Относительная влажность воздуха - влажноcть воздуха, измеренная на высоте 2 м над землей.
Te - Эффективная температура - температура, которую ощущает одетый по сезону человек в тени. Характеристика душности погоды. При расчете учитывается влияние влажности воздуха и скорости ветра на теплоощущения человека.
Tes - Эффективная температура на солнце - температура, которую ощущает человек, с поправкой на солнечный нагрев. Характеристика знойности погоды. Зависит от высоты солнца над горизонтом, облачности и скорости ветра. Ночью, в пасмурную погоду, а также при ветре 12 м/с и более поправка равна нулю.
P - Атмосферное давление - приведенное к уровню моря атмосферное давление.
Po - Атмосферное давление - измеренное на уровне метеостанции атмосферное давление.
Tmin - Минимальная температура - минимум температуры воздуха на высоте 2 м над землей.
Tmax - Максимальная температура - максимум температуры воздуха на высоте 2 м над землей.
R - Количество осадков - Количество выпавших осадков за период времени, мм. При наведении курсора мыши на число - период времени, за который выпало указанное количество осадков.
R24 - Количество осадков - Количество выпавших осадков за 24 часа, мм.
S - Снежный покров - Высота снежного покрова, см. При наведении курсора мыши на число - состояние снежного покрова и степень покрытия местности в баллах.